Location: Memphis
(29.8667°N, 31.2500°E)
Time: 07:55:48
(UTC+00:00)

COSMO-SKYMED 1 - Pass Details

Date: 03 March 2021
Orbit: 621 x 623 km, 97.9° (Epoch: 15 April)

Event Time Altitude Azimuth Distance (km) Brightness Sun altitude
Rises 16:11:08 0° 5° (N) 2,904 5.9 -4.2°
Reaches altitude 10° 16:13:22 10° 0° (N) 1,994 5.1 -4.7°
Maximum altitude 16:17:34 51° 285° (WNW) 782 3.6 -5.6°
Drops below altitude 10° 16:21:45 10° 209° (SSW) 1,982 5.6 -6.5°
Sets 16:23:59 0° 204° (SSW) 2,884 6.4 -7.0°
